Location: Munkebjergskolens Observatorium
(55.3864°N, 10.3987°E)
Time: 03:24:13
(UTC+02:00)

KKS-1 - Pass Details

Date: 02 April 2023
Orbit: 633 x 644 km, 98.2° (Epoch: 31 May)

Event Time Altitude Azimuth Distance (km) Brightness Sun altitude
Rises 00:17:05 0° 15° (NNE) 2,946 ? -28.4°
Reaches altitude 10° 00:19:17 10° 14° (NNE) 2,033 ? -28.5°
Enters shadow 00:22:26 46° 10° (N) 857 ? -28.6°
